This is the latest recevied weather packets stored in our database for station/object HOWARD. If no packets are shown the sender has not sent any weather packets the latest 10 day(s).
| Time | Temp. | Humidity | Pressure | Rain* | Wind** | Luminosity | Snow |
|---|---|---|---|---|---|---|---|
| 1777173094 | -5° C | 74% | 998.6 hPa | 0 mm | - | - | - |
| 1777172494 | -4.44° C | 75% | 998.7 hPa | 0 mm | - | - | - |
| 1777171895 | -4.44° C | 75% | 998.8 hPa | 0 mm | - | - | - |
| 1777171295 | -4.44° C | 76% | 998.9 hPa | 0 mm | - | - | - |
| 1777170695 | -4.44° C | 77% | 998.9 hPa | 0 mm | - | - | - |
| 1777170095 | -4.44° C | 79% | 999 hPa | 0 mm | - | - | - |
| 1777169495 | -4.44° C | 78% | 999.1 hPa | 0 mm | - | - | - |
| 1777168894 | -3.89° C | 78% | 999.2 hPa | 0 mm | - | - | - |
| 1777168294 | -4.44° C | 77% | 999.3 hPa | 0 mm | - | - | - |
| 1777167694 | -3.89° C | 77% | 999.4 hPa | 0 mm | - | - | - |
| 1777167094 | -3.89° C | 76% | 999.5 hPa | 0 mm | - | - | - |
| 1777166494 | -3.89° C | 76% | 999.6 hPa | 0 mm | - | - | - |
| 1777165894 | -3.89° C | 77% | 999.6 hPa | 0 mm | - | - | - |
| 1777165294 | -3.89° C | 74% | 999.6 hPa | 0 mm | - | - | - |
| 1777164694 | -3.89° C | 74% | 999.7 hPa | 0 mm | - | - | - |
| 1777164094 | -3.33° C | 75% | 999.7 hPa | 0 mm | - | - | - |
| 1777163494 | -3.89° C | 78% | 999.7 hPa | 0 mm | - | - | - |
| 1777162894 | -3.89° C | 76% | 999.8 hPa | 0 mm | - | - | - |
| 1777162294 | -3.33° C | 77% | 999.8 hPa | 0 mm | - | - | - |
| 1777161694 | -3.33° C | 77% | 999.7 hPa | 0 mm | - | - | - |
| 1777161094 | -2.78° C | 76% | 999.7 hPa | 0 mm | - | - | - |
| 1777160494 | -2.22° C | 75% | 999.8 hPa | 0 mm | - | - | - |
| 1777159894 | -2.78° C | 75% | 999.9 hPa | 0 mm | - | - | - |
| 1777159294 | -3.33° C | 73% | 1000 hPa | 0 mm | - | - | - |
| 1777158694 | -3.33° C | 74% | 1000.1 hPa | 0 mm | - | - | - |
* Rain latest hour (hover to see other rain measurements)
** Current wind speed in m/s (hover to see current wind gust speed)